EW2270 Weather Reports


time (UTC)temp
C
wind
direction
speed
KPH
gust
KPH
rain 1hr
cm
rain 24hr
cm
rain mn
cm
humidity
%
barometer
mb
20260506024557 23 84 3.2 6.4 0.00 0.00 0.00 46 1009.0
20260506023047 23 70 3.2 6.4 0.00 0.00 0.00 43 1008.9
20260506021547 23 65 3.2 6.4 0.00 0.00 0.00 43 1008.9
20260506020047 24 61 4.8 9.7 0.00 0.00 0.00 41 1008.8
20260506014547 24 65 6.4 11.3 0.00 0.00 0.00 41 1008.8
20260506013046 24 52 6.4 12.9 0.00 0.00 0.00 39 1008.7
20260506011545 25 43 11.3 17.7 0.00 0.00 0.00 37 1008.7
20260506010046 25 54 8.0 16.1 0.00 0.00 0.00 34 1008.5
20260506004544 25 37 6.4 14.5 0.00 0.00 0.00 36 1008.6
20260506003042 25 82 6.4 17.7 0.00 0.00 0.00 37 1008.6
20260506001542 25 34 14.5 20.9 0.00 0.00 0.00 34 1008.6
20260506000041 25 352 12.9 22.5 0.00 0.00 0.00 34 1008.8
20260505234547 25 10 14.5 25.7 0.00 0.00 0.00 34 1008.9
20260505233038 25 330 11.3 20.9 0.00 0.00 0.00 35 1008.9
20260505231549 25 18 8.0 17.7 0.00 0.00 0.00 36 1008.9
20260505230050 25 20 8.0 17.7 0.00 0.00 0.00 36 1009.0
20260505224536 25 344 8.0 14.5 0.00 0.00 0.00 35 1009.1
20260505223032 25 8 3.2 16.1 0.00 0.00 0.00 36 1009.1
20260505221531 25 304 11.3 19.3 0.00 0.00 0.00 36 1009.2
20260505220032 25 311 9.7 17.7 0.00 0.00 0.00 36 1009.4
20260505214528 25 1 4.8 16.1 0.00 0.00 0.00 36 1009.5
20260505213025 25 331 8.0 19.3 0.00 0.00 0.00 39 1009.6
20260505211525 24 307 9.7 14.5 0.00 0.00 0.00 38 1009.7
20260505210024 24 313 8.0 12.9 0.00 0.00 0.00 39 1009.7
20260505204521 23 340 6.4 16.1 0.00 0.00 0.00 40 1009.8
20260505203021 23 323 8.0 17.7 0.00 0.00 0.00 43 1009.9
20260505201517 23 45 0.0 12.9 0.00 0.00 0.00 45 1010.0
20260505200018 23 284 8.0 14.5 0.00 0.00 0.00 45 1010.0
20260505194517 22 278 8.0 14.5 0.00 0.00 0.00 44 1010.1
20260505193013 22 219 8.0 14.5 0.00 0.00 0.00 45 1010.1
20260505191514 22 229 8.0 17.7 0.00 0.00 0.00 45 1010.3
20260505190011 22 308 9.7 17.7 0.00 0.00 0.00 49 1010.2
20260505184509 22 283 11.3 20.9 0.00 0.00 0.00 48 1010.4
20260505183010 21 305 4.8 17.7 0.00 0.00 0.00 48 1010.3
20260505181507 21 254 12.9 19.3 0.00 0.00 0.00 53 1010.3
20260505180008 21 238 6.4 11.3 0.00 0.00 0.00 51 1010.2
20260505174502 21 271 3.2 16.1 0.00 0.00 0.00 53 1010.3
20260505173202 20 274 3.2 12.9 0.00 0.00 0.00 53 1010.3
20260505171557 20 245 0.0 12.9 0.00 0.00 0.00 55 1010.3
20260505170057 20 255 6.4 12.9 0.00 0.00 0.00 56 1010.3
20260505164553 19 323 4.8 11.3 0.00 0.00 0.00 58 1010.2
20260505163050 19 292 3.2 11.3 0.00 0.00 0.00 57 1010.1
20260505161552 18 309 6.4 9.7 0.00 0.00 0.00 59 1010.1
20260505153040 18 5 0.0 1.6 0.00 0.00 0.00 64 1010.0
20260505151536 16 352 0.0 4.8 0.00 0.00 0.00 69 1010.0
20260505124516 8 122 0.0 3.2 0.00 0.00 0.00 88 1008.6
20260505123023 8 122 0.0 1.6 0.00 0.00 0.00 87 1008.5
20260505121507 9 122 1.6 3.2 0.00 0.00 0.00 85 1008.3
20260505120015 10 121 0.0 1.6 0.00 0.00 0.00 85 1008.1
20260505114503 10 121 0.0 1.6 0.00 0.00 0.00 84 1008.0
20260505113059 10 121 0.0 1.6 0.00 0.00 0.00 83 1007.9
20260505111556 11 121 0.0 1.6 0.00 0.00 0.00 81 1007.7
20260505101605 12 121 0.0 0.0 0.00 0.00 0.00 76 1007.2
20260505094547 13 121 3.2 4.8 0.00 0.00 0.00 69 1007.1
20260505093055 12 121 1.6 4.8 0.00 0.00 0.00 72 1007.0
20260505091544 13 121 0.0 1.6 0.00 0.00 0.00 72 1006.9
20260505090043 12 121 0.0 1.6 0.00 0.00 0.00 70 1006.9
20260505084542 12 121 0.0 1.6 0.00 0.00 0.00 71 1006.8
20260505083041 12 121 0.0 1.6 0.00 0.00 0.00 73 1006.9
20260505081544 12 146 1.6 4.8 0.00 0.00 0.00 71 1006.8
20260505080047 13 118 1.6 4.8 0.00 0.00 0.00 70 1006.7
20260505074536 13 118 0.0 1.6 0.00 0.00 0.00 69 1006.7
20260505073038 13 118 1.6 6.4 0.00 0.00 0.00 70 1006.6
20260505071529 11 119 3.2 6.4 0.00 0.00 0.00 80 1006.3
20260505070026 11 136 1.6 3.2 0.00 0.00 0.00 81 1006.2
20260505064526 11 105 0.0 3.2 0.00 0.00 0.00 79 1006.1
20260505063025 11 105 1.6 8.0 0.00 0.00 0.00 77 1005.9
20260505061528 12 252 1.6 8.0 0.00 0.00 0.00 72 1005.9
20260505060025 14 269 3.2 4.8 0.00 0.00 0.00 67 1005.6
20260505054524 14 269 3.2 4.8 0.00 0.00 0.00 69 1005.5
20260505053034 14 269 1.6 3.2 0.00 0.00 0.00 68 1005.4
20260505051536 15 269 0.0 1.6 0.00 0.00 0.00 63 1005.4
20260505041523 16 264 4.8 6.4 0.00 0.00 0.00 60 1004.9
20260505040020 16 113 1.6 6.4 0.00 0.00 0.00 59 1004.8
20260505034519 16 114 3.2 6.4 0.00 0.00 0.00 61 1004.5
20260505033019 16 118 3.2 6.4 0.00 0.00 0.00 64 1004.4
20260505031521 18 107 3.2 6.4 0.00 0.00 0.00 60 1004.4
20260505030018 20 110 1.6 4.8 0.00 0.00 0.00 56 1004.3